Date,TemperatureHighF,TemperatureAvgF,TemperatureLowF,DewpointHighF,DewpointAvgF,DewpointLowF,HumidityHigh,HumidityAvg,HumidityLow,PressureMaxIn,PressureMinIn,WindSpeedMaxMPH,WindSpeedAvgMPH,GustSpeedMaxMPH,PrecipitationSumIn
2013-3-1,40.0,36.8,30.6,35.2,31.0,28.7,95,80,67,29.64,29.48,11,1,13,0.00
2013-3-2,41.9,36.4,29.8,32.4,28.6,26.1,87,73,64,29.63,29.57,13,1,13,0.00
2013-3-3,39.8,35.1,31.3,32.7,29.0,26.3,92,78,73,29.60,29.51,13,2,14,0.01
2013-3-4,38.9,34.0,30.2,29.4,25.5,22.6,88,71,58,29.70,29.53,24,4,25,0.00
2013-3-5,44.2,35.6,30.6,34.1,27.9,23.2,94,74,57,30.03,29.70,15,1,15,0.00
2013-3-6,39.2,36.1,33.5,36.5,33.4,30.9,100,90,79,30.08,30.00,21,5,27,0.10
2013-3-7,33.7,32.1,30.7,31.8,29.8,27.2,94,91,83,30.06,29.96,17,3,18,0.09
2013-3-8,40.7,33.4,29.6,32.4,28.7,23.3,96,84,57,30.11,29.91,12,2,13,0.15
2013-3-9,48.4,34.4,24.0,32.6,24.9,18.9,92,70,44,30.31,30.11,11,1,12,0.48
2013-3-10,45.0,32.5,20.2,33.5,28.0,18.5,96,84,63,30.38,30.26,11,1,11,0.00
2013-3-11,52.7,41.1,33.1,39.3,35.0,30.8,100,80,53,30.29,30.09,12,1,13,0.00
2013-3-12,54.2,47.2,39.6,51.9,45.7,38.3,97,95,85,30.11,29.67,13,2,19,0.33
2013-3-13,51.6,43.5,30.9,50.2,34.6,23.0,97,73,40,29.73,29.64,20,2,21,0.01
2013-3-14,36.9,31.1,23.0,26.1,18.7,10.2,85,61,47,29.79,29.65,25,3,25,0.00
2013-3-15,41.4,29.6,19.7,29.0,15.3,6.5,86,56,30,29.83,29.57,18,3,23,0.00
2013-3-16,37.9,32.9,27.3,27.9,17.6,12.3,82,54,36,29.84,29.61,13,2,17,0.00
2013-3-17,37.9,29.5,20.8,20.1,13.5,5.9,92,53,30,30.28,29.83,20,2,23,0.00
2013-3-18,39.7,28.3,16.4,26.9,12.2,3.3,89,52,29,30.42,30.20,10,1,13,0.00
2013-3-19,34.4,31.8,27.0,33.1,30.4,24.9,96,95,89,30.20,29.58,17,3,19,0.19
2013-3-20,38.2,30.1,24.0,25.6,23.5,19.9,93,77,55,29.76,29.65,20,3,24,0.35
2013-3-21,37.9,28.6,18.0,28.6,21.5,15.7,94,77,43,29.77,29.56,7,1,8,0.28
2013-3-22,40.7,32.6,25.5,25.3,22.0,18.6,93,66,46,29.69,29.56,14,2,19,0.08
2013-3-23,42.6,34.3,24.8,24.5,21.6,19.8,84,61,42,29.73,29.57,23,4,30,0.00
2013-3-24,46.9,37.5,30.6,29.3,25.5,22.0,87,63,45,29.77,29.67,17,2,19,0.00
2013-3-25,42.7,35.6,28.6,34.8,30.3,25.6,91,81,70,29.73,29.49,14,2,18,0.00
2013-3-26,51.2,40.4,33.9,30.2,26.8,22.5,77,60,34,29.73,29.50,15,2,17,0.00
2013-3-27,55.1,41.2,26.7,34.4,27.3,22.7,88,60,36,29.83,29.68,22,2,22,0.00
2013-3-28,48.1,41.6,36.1,38.4,34.9,31.1,92,78,54,29.97,29.82,10,1,11,0.02
2013-3-29,57.4,43.9,30.5,38.9,33.6,28.3,95,69,39,30.00,29.91,14,1,17,0.00
2013-3-30,57.6,45.3,33.1,35.8,27.6,19.1,90,55,24,30.05,29.94,15,2,16,0.00
2013-3-31,62.2,44.7,26.2,41.0,29.6,22.4,91,60,27,30.08,29.70,18,2,24,0.02